GFSFLT2_sfc_30mbdewp_234.txt.gz
Dewpoint
67 68 69 69 69 69 68 68 68 69 69 69 69 68 68 68 68 67 65 63 60 57 58 63 64 66 66 66 65 65 65 63
67 67 67 68 69 68 68 68 68 69 69 69 68 67 67 67 67 66 65 63 60 57 54 58 64 65 65 65 66 66 65 63
67 67 66 67 68 68 68 67 68 68 69 69 68 66 66 66 65 65 65 63 60 58 56 54 62 64 64 64 65 64 63 61
67 66 66 67 67 68 67 67 67 68 68 68 67 66 65 64 64 64 64 63 61 59 57 55 54 56 63 64 64 61 58 57
66 67 67 67 67 67 66 66 66 66 67 67 66 65 64 64 63 61 62 61 60 59 58 56 51 49 58 61 61 59 59 58
64 68 68 68 69 68 66 66 66 66 67 68 66 65 65 65 64 63 62 61 61 59 59 58 58 58 56 54 53 57 58 59
62 67 69 69 69 68 68 67 67 67 67 67 67 66 65 64 64 64 63 61 61 62 61 60 59 58 56 55 53 53 55 58
63 67 67 68 68 68 68 68 67 68 68 67 67 66 66 64 64 63 63 63 62 61 60 61 61 61 59 56 55 55 54 55
63 66 67 67 67 67 67 68 68 67 67 67 67 67 65 63 64 64 64 64 63 63 63 62 61 60 58 56 56 56 56 57
62 65 67 67 67 67 66 66 65 65 65 67 67 66 65 65 64 65 64 64 63 62 62 60 60 60 59 58 56 56 56 55
61 63 67 67 66 66 66 66 65 66 66 66 66 66 65 65 65 64 64 63 62 61 61 59 58 58 59 58 58 57 56 56
62 64 66 66 65 65 65 66 66 66 65 65 65 66 65 65 65 64 63 60 60 60 59 59 58 58 58 57 57 57 57 56
61 65 66 65 65 65 65 64 65 65 65 65 65 65 65 66 65 63 60 58 60 59 58 58 57 58 56 56 56 57 57 57
61 66 66 65 65 65 65 64 64 64 64 65 65 66 66 66 64 58 59 58 59 58 58 56 56 56 54 54 49 51 54 54
59 64 67 66 65 65 65 64 64 64 63 65 65 66 66 64 62 58 58 58 57 56 54 53 53 53 53 53 48 45 49 52
55 59 65 67 66 65 64 63 62 63 64 64 65 66 65 63 58 58 57 58 55 53 53 53 52 51 52 53 54 53 48 46
55 56 59 67 66 65 65 63 63 63 64 64 65 65 64 59 58 57 54 52 51 51 51 52 53 52 51 51 52 52 52 50
61 61 58 67 66 65 65 63 63 63 63 63 63 62 58 56 54 54 53 53 52 53 53 53 53 53 53 52 52 51 49 49
61 61 63 66 66 66 65 64 64 63 62 62 57 56 53 52 52 53 53 53 53 54 53 53 53 53 52 52 52 52 52 51
61 62 62 63 64 65 65 65 64 63 61 58 54 50 50 53 52 52 52 52 52 52 52 52 53 52 53 52 52 51 51 50

GFSFLT2_sfc_30mbdewp_237.txt.gz
Dewpoint
67 69 69 70 69 68 68 68 68 68 69 69 69 68 68 68 67 67 65 63 60 58 59 63 63 65 65 65 65 65 65 64
67 68 69 68 68 67 67 67 68 68 68 69 68 67 67 67 67 66 65 62 60 56 53 55 62 64 64 64 64 64 64 63
67 67 68 68 68 68 67 67 68 68 68 69 68 67 67 66 66 66 65 63 60 57 54 52 56 62 63 64 64 64 64 63
66 66 67 68 68 68 67 67 68 68 68 68 67 66 65 65 65 65 64 63 61 59 57 55 52 56 61 63 63 63 61 59
66 66 66 67 67 67 67 67 67 67 68 68 67 66 66 65 64 64 64 63 61 60 58 57 53 50 49 61 61 61 59 59
66 67 67 67 67 66 66 66 66 66 67 67 66 66 64 64 63 62 61 61 60 59 58 57 55 53 56 60 59 58 59 60
66 67 67 67 68 67 66 66 66 66 67 67 66 65 65 65 64 63 62 62 60 61 59 59 59 59 58 56 54 53 52 59
67 67 68 68 68 68 67 67 67 67 67 67 67 66 65 65 64 64 63 63 61 62 61 61 62 61 58 56 56 55 54 55
67 68 68 68 68 68 68 68 67 67 67 67 67 66 65 65 64 64 63 64 63 63 62 62 61 61 59 58 56 55 55 56
65 67 67 68 68 66 67 68 67 67 68 68 67 67 65 64 64 64 64 64 63 62 61 61 60 59 59 58 58 57 56 56
65 66 66 66 66 66 65 66 66 67 67 67 67 66 66 65 64 64 64 64 63 61 60 59 57 57 58 58 58 57 57 56
65 66 66 66 66 66 64 64 65 66 65 66 66 66 65 65 64 64 64 63 62 61 60 59 58 58 58 56 56 57 57 56
65 66 66 66 65 64 64 64 65 65 65 65 65 65 65 65 65 64 63 63 60 60 59 58 56 56 55 55 55 56 55 56
62 66 66 65 64 64 64 64 65 64 65 65 65 65 65 65 65 65 63 60 59 57 55 56 56 56 54 53 49 48 53 55
62 64 65 65 64 64 65 65 64 64 64 63 64 65 65 65 65 64 61 59 58 56 56 55 52 53 54 51 48 44 49 49
64 65 65 65 65 64 64 63 62 63 63 63 65 65 65 66 65 61 59 58 56 56 55 52 52 49 51 52 53 52 49 47
61 66 66 65 65 64 64 63 62 63 63 63 63 65 65 65 62 60 59 57 56 54 53 53 52 51 51 50 50 51 52 50
59 60 66 66 65 65 64 63 63 62 62 63 63 64 65 63 60 59 56 53 50 50 51 52 52 52 52 52 51 50 48 48
59 60 63 66 65 65 64 64 63 63 63 63 63 63 61 60 59 56 53 52 51 52 52 53 53 53 52 52 53 52 52 51
59 59 61 65 65 65 65 65 64 64 64 64 63 61 58 58 56 54 52 52 53 53 52 52 53 52 52 52 52 52 52 51

GFSFLT2_sfc_30mbdewp_240.txt.gz
Dewpoint
70 70 70 70 69 69 68 68 68 68 68 68 68 67 67 67 67 66 65 62 61 60 61 63 63 64 64 64 63 64 63 62
68 69 70 69 68 68 67 67 67 67 68 68 67 67 67 67 67 66 64 62 60 57 55 56 61 63 63 63 64 64 63 63
67 68 68 68 67 67 67 67 67 67 68 68 67 67 67 67 66 65 64 63 60 57 54 51 54 59 61 62 63 63 63 63
66 67 67 67 66 67 67 67 67 68 68 68 67 66 66 66 66 65 65 63 61 59 57 55 53 52 56 61 61 61 61 60
66 66 67 67 66 66 66 67 67 67 67 67 67 66 65 65 64 65 65 64 62 60 59 58 55 51 48 55 60 60 60 59
65 65 66 67 67 66 66 66 66 66 67 67 66 65 65 64 64 63 63 62 61 59 58 57 56 54 51 54 57 60 59 59
65 65 66 66 66 65 66 65 66 66 66 67 66 65 64 64 63 62 62 61 60 59 59 58 58 58 59 58 56 55 53 57
65 66 66 66 66 66 65 65 65 66 65 66 66 65 65 64 64 63 62 62 61 60 60 60 60 60 58 57 56 56 56 56
65 66 66 66 67 66 66 66 66 65 66 67 66 66 65 65 64 64 64 63 62 62 62 62 61 60 59 59 58 57 56 56
66 66 66 66 67 67 67 67 66 66 67 67 67 67 66 65 64 64 64 64 63 62 62 61 60 60 58 58 58 57 57 56
66 66 67 67 67 67 67 67 67 67 67 67 67 67 66 65 64 64 64 63 63 62 61 60 58 58 58 57 58 58 57 57
66 67 67 67 67 66 66 66 67 67 67 67 67 67 66 65 64 64 64 63 62 61 59 59 58 56 57 57 56 56 56 56
65 66 66 66 66 65 64 63 64 66 66 66 66 66 66 65 64 64 64 63 62 61 59 58 57 57 55 53 53 54 54 54
64 65 65 65 65 65 64 63 63 64 66 65 66 66 65 65 64 64 63 63 62 60 59 57 56 55 51 52 47 45 49 53
64 65 65 65 65 65 64 64 64 64 64 64 65 65 65 65 65 64 63 62 61 59 57 57 54 54 55 47 46 40 46 49
63 65 66 65 65 64 63 63 62 63 63 63 63 65 65 65 65 65 63 61 60 58 56 54 50 46 52 53 51 49 48 46
63 65 65 64 64 64 63 63 62 62 63 63 63 64 64 65 65 64 62 61 60 58 56 52 50 49 49 50 51 50 50 50
64 64 64 64 64 64 64 63 62 62 62 62 63 63 64 64 64 63 61 59 58 58 56 51 52 51 51 51 49 48 45 47
61 64 64 64 64 64 64 63 63 62 62 62 62 62 63 64 62 61 60 59 57 56 53 52 51 52 51 52 52 52 51 50
59 60 62 65 65 64 64 64 63 63 63 63 63 63 63 63 62 60 59 56 56 54 52 52 52 52 52 52 51 51 52 51

GFSFLT2_sfc_30mbdewp_243.txt.gz
Dewpoint
69 70 70 69 69 68 68 68 68 68 68 68 68 67 67 67 67 65 64 63 61 62 62 62 62 63 63 63 63 63 63 62
68 69 70 69 69 68 67 67 67 67 67 67 67 67 67 67 66 65 64 61 60 58 56 58 60 62 62 62 63 64 62 62
68 68 69 69 68 68 67 67 67 67 67 67 67 66 67 67 66 65 63 62 60 58 54 52 53 58 59 61 62 61 61 62
67 67 67 68 67 67 67 67 67 67 67 67 66 66 66 66 65 65 64 63 62 60 58 55 53 51 52 59 60 60 60 60
66 67 67 67 66 66 66 66 66 66 66 66 66 65 65 65 64 65 64 64 62 61 59 58 55 52 49 49 56 59 60 60
64 66 66 66 66 66 65 66 66 66 66 66 65 65 64 63 64 63 64 64 62 60 59 58 57 55 52 51 55 57 59 57
63 64 65 65 65 65 65 65 65 65 66 66 66 65 64 64 63 63 63 63 61 60 58 58 57 57 57 57 58 57 55 54
63 63 63 64 64 64 64 65 65 65 65 66 66 65 64 64 64 63 62 62 61 59 58 59 59 59 58 56 56 56 56 56
64 63 64 64 64 64 64 64 64 64 64 65 65 65 64 64 64 63 63 62 61 61 60 61 60 60 59 58 58 57 57 55
66 65 64 64 64 65 64 64 64 64 64 65 65 65 65 64 64 64 64 63 63 62 61 61 60 60 59 59 58 57 57 57
66 65 64 64 65 65 66 65 65 65 65 65 65 66 66 65 64 64 64 63 63 62 61 60 59 59 58 57 57 57 57 57
66 65 65 65 65 66 66 66 66 66 66 66 66 66 66 66 65 64 64 63 63 62 61 60 59 58 57 57 57 56 55 55
65 65 65 66 66 65 65 65 66 66 66 66 67 66 67 66 65 64 64 63 62 62 60 59 58 57 56 54 53 53 53 54
63 65 66 66 66 66 65 65 65 66 66 66 67 66 67 66 65 64 64 63 63 62 60 58 58 57 54 50 42 40 47 50
62 65 66 66 66 66 64 63 63 63 64 65 66 66 66 66 65 65 64 63 62 62 60 59 57 56 53 46 42 35 43 48
62 64 65 66 66 65 64 63 62 63 63 64 64 65 65 66 65 65 64 64 63 62 60 60 58 55 54 53 48 42 43 43
61 64 65 65 65 64 64 63 62 62 63 63 63 64 65 65 65 65 65 64 63 61 58 57 54 52 51 51 51 51 50 49
63 64 65 64 64 64 63 63 62 61 61 62 62 63 64 64 64 65 64 64 62 60 58 56 54 54 52 51 47 47 47 46
63 64 64 64 64 64 63 63 63 62 61 62 62 62 63 63 63 63 64 63 60 59 57 54 54 53 51 50 50 50 50 49
62 63 62 63 64 64 63 63 63 63 62 62 62 62 63 63 64 63 62 60 58 58 57 56 54 53 52 51 51 51 51 51

GFSFLT2_sfc_30mbdewp_246.txt.gz
Dewpoint
69 69 69 69 69 68 68 67 67 67 68 68 68 67 67 67 66 66 65 64 63 62 62 62 61 62 62 62 62 63 62 61
68 69 69 68 68 68 67 67 67 67 67 67 67 67 67 66 66 65 63 62 61 60 59 60 60 60 61 61 62 63 61 61
67 67 68 68 68 68 67 67 66 67 67 67 67 66 66 66 65 65 63 62 60 58 55 53 54 57 58 60 61 60 60 61
66 66 67 68 68 67 67 66 66 66 66 67 66 65 65 66 65 65 64 63 62 60 58 55 53 51 51 57 60 59 60 59
65 66 67 67 67 66 66 66 66 66 66 66 65 65 65 65 64 65 64 64 62 62 60 59 56 53 50 49 53 58 59 59
65 66 66 66 66 66 65 65 65 65 65 65 65 64 64 64 63 63 63 63 63 61 60 58 57 56 53 52 52 56 58 57
63 65 65 66 65 65 65 65 65 65 65 65 65 64 63 63 63 62 62 62 62 61 59 58 57 57 56 56 57 58 56 55
63 64 65 65 65 65 64 64 64 64 65 65 65 64 64 63 63 62 62 62 62 61 59 58 57 58 58 58 57 56 56 55
63 63 64 64 64 64 64 64 64 64 64 64 65 65 64 63 63 63 63 62 62 61 60 59 59 59 59 57 57 57 56 56
63 63 63 63 63 63 63 64 64 64 64 64 64 65 64 64 63 63 63 63 62 61 60 60 59 60 59 59 59 58 57 56
64 64 63 63 63 63 64 63 63 63 64 64 64 64 65 64 63 63 63 63 63 62 61 61 60 60 60 59 58 57 56 57
65 65 64 63 63 63 65 64 64 64 64 63 64 64 65 65 64 64 64 63 63 62 62 61 60 60 59 58 57 56 56 55
66 65 65 64 63 63 63 63 63 64 65 65 65 65 65 65 65 65 64 63 63 62 61 61 59 58 58 56 55 54 54 53
65 65 65 65 64 64 63 63 64 64 65 65 66 65 66 65 65 65 64 64 63 62 61 60 60 58 57 52 51 44 46 49
63 65 65 65 65 65 64 64 63 64 64 65 65 66 66 66 66 65 65 64 63 62 62 61 59 58 56 54 45 42 42 46
61 63 64 65 65 65 64 63 63 63 64 65 65 65 66 66 66 65 65 64 64 63 63 62 61 58 55 54 49 46 43 41
58 61 64 65 66 65 65 64 64 62 63 63 64 64 65 65 66 65 65 64 64 63 62 61 58 55 54 52 52 52 50 47
61 62 63 65 66 65 64 64 63 62 62 62 62 63 63 64 65 65 65 65 64 63 62 60 56 55 53 52 51 49 49 49
61 63 63 64 65 65 64 64 63 62 62 62 62 62 62 63 64 64 64 64 64 63 60 58 56 54 53 52 51 49 49 48
61 62 62 63 64 64 64 64 63 63 63 62 62 62 62 62 63 63 63 63 62 61 59 57 56 54 53 52 51 51 51 50

GFSFLT2_sfc_30mbdewp_252.txt.gz
Dewpoint
65 65 66 68 68 68 68 67 67 67 68 68 68 67 67 67 67 67 67 66 64 63 62 61 61 61 61 61 61 61 56 51
66 65 64 64 65 68 67 66 67 67 67 67 67 67 66 66 66 66 66 65 63 62 61 61 62 62 62 61 61 61 53 51
66 65 64 64 64 65 67 66 66 67 66 67 66 60 61 63 61 64 65 64 63 62 62 60 59 59 60 60 61 55 56 54
65 65 65 65 63 64 64 63 62 62 62 63 60 59 59 58 60 64 64 63 62 60 58 56 52 50 52 56 53 56 57 53
63 66 66 66 64 63 63 63 62 62 62 62 60 61 61 60 60 61 61 62 59 59 57 55 52 52 51 52 54 58 55 55
63 64 66 66 64 63 62 62 63 62 62 64 61 62 61 59 59 59 59 58 58 60 58 57 57 56 55 54 56 55 54 55
62 64 66 66 67 63 64 63 63 63 62 63 62 61 61 60 60 59 59 59 59 60 60 59 58 56 57 56 56 56 57 55
61 63 65 66 66 66 64 64 63 64 62 62 64 62 61 61 61 60 60 59 59 59 60 60 58 55 57 58 58 57 57 58
60 63 65 66 66 66 65 64 64 63 63 63 63 64 62 62 61 60 60 60 61 60 61 62 58 57 57 58 59 59 58 58
58 61 63 66 65 64 64 64 64 63 63 62 64 64 63 63 61 61 61 62 62 61 61 61 60 58 57 58 58 59 58 58
58 61 61 64 65 64 63 63 64 63 62 62 62 64 64 63 61 61 62 62 62 61 61 61 61 60 59 59 59 59 59 59
59 61 62 62 63 64 62 63 63 63 62 61 62 63 63 63 62 62 63 62 61 62 61 61 61 61 60 60 61 62 61 61
60 61 62 63 62 62 61 60 61 61 62 62 62 62 63 63 62 61 63 62 61 62 62 62 62 63 62 62 62 62 63 61
59 61 62 64 62 62 60 60 60 61 62 62 63 63 63 63 63 61 61 62 62 63 63 63 63 63 62 61 59 56 56 57
56 59 61 63 64 62 62 62 62 61 62 62 63 64 63 63 63 63 62 63 62 63 64 64 62 62 64 61 54 55 50 52
47 55 58 62 64 63 62 61 60 60 61 62 63 64 65 64 64 64 64 64 65 65 65 65 65 63 63 64 60 57 50 47
51 54 58 61 63 65 63 63 63 62 62 63 64 64 66 66 65 66 66 66 66 66 65 65 65 64 61 55 54 52 52 50
49 53 56 60 63 65 65 64 64 63 63 63 64 65 67 67 66 66 66 66 66 66 66 65 65 64 64 58 57 54 51 51
58 58 57 59 62 64 64 65 65 64 64 64 64 63 66 66 66 66 66 66 66 66 65 65 65 64 63 60 59 59 57 53
55 57 58 61 62 64 64 65 65 64 64 64 63 64 64 65 66 66 66 66 66 66 65 65 64 64 63 61 59 57 55 55

GFSFLT2_sfc_30mbdewp_258.txt.gz
Dewpoint
64 66 67 69 69 69 69 69 68 69 69 69 70 70 69 68 68 68 68 68 68 67 66 65 65 64 63 62 61 60 59 56
65 64 65 67 68 68 68 68 68 68 69 69 69 68 68 67 67 67 68 68 67 67 65 64 63 62 61 61 61 61 59 55
65 64 63 63 64 67 68 68 67 68 68 68 67 66 65 64 65 64 66 66 65 64 63 61 61 61 61 61 61 59 55 54
65 63 63 63 61 64 67 66 67 67 66 66 66 64 61 59 61 62 65 65 64 63 62 62 62 59 59 60 60 55 53 54
63 65 64 63 62 64 64 63 63 64 64 64 65 62 62 60 61 61 65 65 63 62 62 62 58 56 53 56 55 54 54 57
62 65 65 65 63 63 65 62 63 62 63 64 64 63 62 62 60 61 62 62 61 59 59 58 57 56 55 57 56 55 56 57
61 63 66 67 66 63 64 64 63 63 63 64 64 64 63 63 62 61 62 60 60 59 59 59 59 58 58 58 57 56 56 58
60 60 67 67 67 67 65 65 64 65 64 64 65 65 64 64 63 63 61 61 60 61 60 60 61 60 60 59 58 57 57 57
59 60 67 68 68 67 68 64 65 65 64 65 66 65 65 65 64 63 63 62 62 62 61 61 61 61 60 60 59 59 58 59
59 59 63 68 68 68 67 67 64 64 65 64 67 66 66 65 65 64 63 63 63 62 61 61 61 60 60 60 58 59 59 59
58 60 61 66 68 68 68 67 66 65 64 65 65 67 67 66 65 64 65 63 63 62 62 62 61 61 61 61 60 59 59 60
59 61 61 65 67 68 67 66 66 65 65 64 65 66 66 66 65 65 64 64 63 63 62 63 62 61 61 58 59 62 62 62
57 60 63 64 66 66 65 65 64 64 64 64 64 65 66 66 66 65 66 63 63 63 63 63 62 63 60 60 61 62 62 62
55 60 63 63 64 65 66 65 64 63 63 64 64 64 65 66 66 65 65 64 64 64 63 63 63 63 61 60 59 61 63 63
51 57 63 63 63 64 64 65 64 62 62 62 63 64 64 65 66 66 65 65 63 64 64 63 62 63 63 61 60 58 59 59
49 53 60 63 64 63 63 62 62 62 62 62 62 64 64 64 65 65 66 65 64 64 65 64 64 62 64 63 62 61 58 55
47 48 48 61 64 64 64 65 64 64 64 63 64 64 66 65 65 66 65 66 65 65 65 65 65 64 63 63 64 64 62 60
55 51 48 56 62 66 65 65 65 65 65 65 65 66 67 67 66 66 67 66 66 66 66 66 65 65 65 65 62 59 58 58
55 55 56 58 60 62 64 66 67 66 66 67 66 66 66 66 68 68 67 67 67 67 67 67 67 66 65 64 64 63 61 58
53 56 58 59 60 61 63 64 65 66 66 66 66 66 66 67 67 68 68 68 67 67 67 66 66 66 66 65 64 64 63 58

GFSFLT2_sfc_30mbdewp_261.txt.gz
Dewpoint
66 69 70 70 70 70 70 69 69 68 68 69 69 70 70 69 68 68 68 68 68 68 68 66 65 64 64 63 62 60 59 57
63 66 68 69 69 69 69 69 68 68 68 68 69 69 69 68 68 68 68 68 68 68 67 65 64 64 63 62 60 60 59 56
63 64 66 67 68 69 68 68 67 67 68 68 68 68 68 67 67 66 67 67 67 67 66 64 63 62 61 60 60 60 58 55
63 63 63 64 65 67 67 67 67 67 68 67 67 67 65 65 65 65 66 66 66 65 64 62 61 60 60 60 60 59 57 54
64 63 63 63 62 65 66 67 67 67 67 66 66 65 64 63 62 63 64 65 65 64 63 62 61 60 58 57 58 57 55 53
64 63 63 63 62 64 64 64 65 65 65 65 65 64 62 61 60 61 63 63 63 62 61 60 60 58 57 55 55 55 54 55
64 64 63 63 63 64 64 62 63 63 63 64 64 63 62 61 61 61 62 62 62 61 59 59 58 57 56 55 56 55 55 56
63 64 64 64 63 63 64 63 63 63 63 63 63 64 62 62 63 62 62 62 61 60 58 58 58 58 57 56 57 58 57 57
62 64 65 65 63 65 66 66 64 63 63 63 64 63 64 62 64 62 63 62 61 60 59 59 60 59 59 59 59 59 58 57
61 62 65 65 65 64 64 68 65 64 64 65 64 64 64 65 64 64 63 63 62 62 62 60 60 61 61 60 61 59 59 58
59 61 65 66 66 66 65 66 67 64 65 65 66 65 64 64 64 65 64 63 63 62 62 61 60 60 60 60 60 60 58 58
58 60 65 66 67 68 68 67 67 67 65 65 65 67 66 65 65 64 64 64 63 63 62 62 60 60 60 60 61 61 60 59
57 59 64 67 67 67 67 67 66 66 66 65 64 66 67 66 65 65 65 63 63 63 62 62 62 62 61 60 61 60 60 62
58 59 64 65 66 66 66 66 66 66 65 65 65 65 66 66 66 66 65 64 64 63 63 62 62 62 61 60 59 59 61 62
60 60 63 63 65 66 66 66 65 64 64 64 64 65 65 66 66 66 66 65 64 64 63 63 61 62 63 60 58 57 58 60
52 61 62 63 65 65 65 64 64 64 63 63 63 64 64 65 65 66 66 66 65 64 64 63 63 62 63 63 62 59 57 55
47 52 63 63 63 64 64 63 63 63 63 63 63 64 64 64 65 65 66 66 65 65 64 64 64 63 62 62 63 63 62 58
54 47 54 64 63 64 64 63 64 65 65 65 65 66 67 67 65 65 66 66 66 66 65 65 65 65 65 64 63 62 61 59
56 57 59 63 65 65 65 66 66 66 66 66 65 65 66 66 67 66 66 67 66 66 66 66 66 65 65 65 65 64 62 61
56 56 58 60 60 61 62 64 65 66 66 66 66 66 66 67 67 66 67 67 67 67 66 66 66 66 66 65 65 64 62 60

GFSFLT2_sfc_30mbdewp_264.txt.gz
Dewpoint
69 70 70 70 70 69 69 68 68 68 68 68 69 69 69 69 68 67 68 68 68 68 68 67 65 65 64 63 61 61 60 58
66 68 69 70 70 69 69 68 68 68 68 68 68 69 69 69 68 68 68 68 68 68 68 67 65 64 63 62 61 60 58 58
64 66 68 68 69 69 69 68 68 67 68 68 68 68 68 68 68 67 67 67 68 68 67 66 65 64 63 62 60 59 58 57
61 63 65 67 68 68 68 68 68 67 67 67 67 67 67 67 67 66 66 66 67 67 66 65 64 62 60 60 60 59 58 57
60 61 63 65 65 67 67 67 67 66 66 66 66 66 66 65 64 64 64 65 65 66 65 64 62 60 59 58 58 58 58 56
62 60 61 62 62 65 65 66 66 65 66 66 65 65 64 63 62 62 62 63 64 63 63 62 61 60 59 57 56 56 56 55
63 62 60 60 61 63 63 63 64 64 65 65 65 64 63 62 61 61 61 62 62 62 61 60 60 59 58 57 56 55 55 55
64 63 62 61 60 62 62 62 62 62 63 63 64 63 62 61 60 60 61 61 61 61 60 59 59 58 57 57 56 55 55 55
64 64 63 62 60 61 62 63 62 62 61 62 63 63 62 61 61 62 61 62 61 61 60 59 58 58 57 57 57 56 56 57
63 64 63 63 62 62 63 64 63 63 62 63 62 62 63 62 61 61 63 62 62 61 60 60 59 58 58 58 58 58 59 59
62 64 64 63 63 63 63 64 64 64 63 63 63 63 63 63 63 63 63 63 63 62 62 60 60 60 60 60 61 61 60 59
60 63 64 64 64 63 64 65 66 65 65 64 65 64 64 63 63 64 65 64 63 62 62 62 62 61 60 60 61 61 61 60
58 61 63 65 65 64 64 64 65 66 66 65 65 66 65 64 64 64 64 64 64 64 62 62 61 62 61 60 60 61 61 61
55 59 62 65 65 66 66 66 65 66 66 66 65 66 67 66 65 65 65 64 64 63 63 62 62 62 61 60 59 59 60 61
54 58 61 65 65 66 66 66 65 66 65 65 65 65 66 67 66 66 65 65 64 64 64 63 62 62 62 61 58 57 57 58
58 58 62 65 66 66 65 65 64 65 65 65 65 65 65 65 66 66 66 66 65 64 64 64 63 62 63 63 62 60 58 57
58 61 62 64 65 66 65 64 64 64 64 64 64 64 64 65 66 66 66 66 66 65 65 64 64 63 63 63 62 63 63 61
47 59 62 63 65 65 65 64 64 64 64 64 64 65 66 66 65 65 66 66 66 66 66 65 65 64 64 64 63 62 61 61
53 55 61 63 64 64 64 64 64 64 65 66 65 66 66 66 66 66 66 66 66 66 66 66 66 65 65 64 64 64 64 62
58 60 61 64 64 64 65 66 65 62 63 63 63 64 64 64 64 64 64 65 66 67 67 66 66 65 65 65 64 63 63 62

GFSFLT2_sfc_30mbdewp_267.txt.gz
Dewpoint
68 69 69 69 69 69 69 68 68 68 68 68 69 69 69 68 67 67 68 68 68 68 68 67 66 65 64 63 62 62 61 58
68 68 69 69 69 68 68 68 68 68 68 68 68 68 68 68 67 67 67 67 68 68 68 67 66 65 64 63 62 62 60 58
67 68 68 68 68 69 68 68 67 67 67 67 67 68 68 68 67 67 67 67 67 67 67 67 66 64 63 62 62 61 58 57
64 66 67 68 68 68 68 68 68 67 67 67 67 67 67 67 67 67 66 66 66 66 67 66 66 64 62 62 61 60 58 57
61 63 65 66 66 68 67 67 67 67 66 66 66 66 66 66 66 66 66 66 65 66 66 66 64 63 61 59 58 57 57 57
57 60 63 65 65 67 66 66 67 66 66 66 65 65 65 64 64 63 63 63 63 64 64 63 62 62 60 58 57 56 56 56
59 58 60 62 63 64 65 65 66 65 65 65 65 64 64 63 63 62 61 62 62 62 62 62 61 60 60 59 57 56 55 55
61 59 58 59 60 61 62 63 64 64 64 64 64 63 63 62 62 61 61 61 61 61 61 61 60 59 58 58 57 56 55 55
62 62 60 59 58 58 60 60 61 62 62 62 63 63 62 61 60 60 60 61 61 61 61 60 59 59 58 57 57 56 56 56
63 63 62 61 59 58 59 60 60 60 60 61 62 62 62 61 60 60 61 61 61 60 60 60 59 59 58 58 58 58 57 57
61 64 63 62 61 60 59 60 62 61 61 61 61 61 62 61 61 60 61 62 62 61 61 60 60 59 59 59 59 59 59 59
60 63 64 63 63 62 61 62 63 63 63 63 63 62 62 62 62 62 62 62 63 62 62 62 61 61 60 60 60 61 61 61
56 61 63 64 63 62 62 62 64 64 64 64 64 64 63 63 63 63 64 63 63 63 62 62 61 62 61 61 61 61 61 61
50 58 62 64 63 63 63 63 64 66 66 65 65 65 64 64 63 63 64 63 64 64 63 63 62 62 61 60 59 59 60 61
44 55 60 63 63 64 65 64 66 65 65 66 65 65 66 65 65 64 64 64 64 64 63 63 62 63 63 61 58 56 54 58
44 54 60 62 64 65 65 64 63 64 65 65 65 66 66 67 66 66 65 65 65 64 64 64 63 62 63 63 63 61 58 56
53 56 59 63 64 65 65 64 65 65 65 65 65 65 65 65 66 66 66 66 66 66 65 65 64 64 63 63 62 62 62 60
57 58 61 64 65 66 65 64 64 64 64 64 64 64 65 66 65 66 66 66 66 66 66 65 65 65 64 64 63 62 61 61
48 60 61 64 65 65 65 65 64 63 63 64 66 66 65 65 66 66 65 65 65 66 66 66 65 65 65 65 65 64 64 62
55 57 62 64 65 65 65 64 64 64 65 64 63 62 62 62 62 62 60 58 59 60 61 62 62 64 65 65 64 64 64 63

GFSFLT2_sfc_30mbdewp_270.txt.gz
Dewpoint
68 68 68 68 68 68 68 68 68 68 68 69 69 68 68 67 67 67 67 67 68 68 68 68 66 65 64 63 62 62 61 59
67 68 68 68 68 68 68 68 68 67 67 68 68 68 68 67 67 67 67 67 67 67 67 67 66 65 64 63 62 62 61 59
67 67 68 68 68 68 68 68 67 67 67 67 67 67 67 67 67 66 66 66 67 67 67 67 66 66 65 63 63 61 59 58
66 67 67 67 67 67 68 67 67 67 67 67 67 66 66 67 67 67 66 66 66 66 67 67 66 65 64 63 62 61 59 58
64 66 66 66 66 67 67 67 67 67 66 66 66 66 66 66 66 66 66 66 65 66 65 66 65 64 63 62 60 59 58 57
60 64 66 66 66 66 66 66 66 66 66 66 65 65 64 64 65 64 64 64 64 64 63 63 63 63 62 61 59 58 57 56
56 61 63 64 65 65 65 65 65 65 65 65 65 64 63 63 63 63 63 62 62 62 62 62 61 61 61 60 59 58 57 56
59 57 60 61 63 63 64 64 64 65 65 65 65 64 63 63 62 62 62 61 61 61 60 60 60 60 60 59 59 58 57 56
60 59 57 58 60 60 62 62 63 64 64 64 64 64 62 62 61 61 61 61 60 61 60 61 60 60 59 59 58 58 57 56
61 61 59 57 57 58 59 60 62 62 63 63 63 63 62 62 61 60 60 60 60 60 60 59 59 59 59 59 58 58 58 58
61 62 61 59 58 57 58 58 60 60 60 61 61 62 62 61 61 60 60 60 60 60 60 59 59 59 59 59 59 59 59 59
60 62 62 62 61 59 59 59 60 61 60 60 60 61 61 61 61 61 61 61 61 61 60 61 60 60 60 60 60 60 60 60
58 60 63 63 62 61 60 59 59 61 62 62 62 62 61 61 61 62 62 61 61 62 62 61 61 62 61 61 61 61 61 61
54 58 61 63 63 62 61 61 61 62 63 64 63 63 63 63 62 62 63 63 63 63 63 62 62 62 61 60 59 59 61 61
48 53 57 63 63 63 63 63 64 64 64 64 64 64 64 64 63 63 63 63 63 63 63 63 62 63 63 61 59 57 58 58
34 40 52 60 63 62 62 61 61 63 64 65 65 65 66 65 64 64 64 64 64 64 64 64 63 62 63 63 63 61 59 58
50 41 46 56 63 62 63 62 62 64 64 65 65 66 66 66 66 66 65 65 65 65 65 64 64 64 64 63 62 63 63 60
48 57 54 60 63 63 64 63 64 64 64 65 65 65 65 65 65 66 66 66 66 66 66 66 65 65 65 64 64 62 61 60
57 53 60 63 64 64 65 65 65 64 64 64 64 65 64 64 63 62 61 60 60 62 62 62 62 63 63 64 64 64 63 62
58 59 62 64 65 65 65 65 64 64 64 65 63 61 60 58 55 52 51 51 53 56 53 53 56 56 55 56 57 56 56 58

GFSFLT2_sfc_30mbdewp_273.txt.gz
Dewpoint
67 67 67 68 68 68 68 68 68 68 69 69 69 68 68 67 67 67 67 68 68 68 68 68 67 66 65 64 63 62 58 55
66 67 66 66 66 68 67 68 67 67 68 68 68 68 67 67 66 66 66 67 67 67 68 67 67 66 65 64 63 62 58 57
66 66 66 66 65 66 67 67 67 67 67 67 67 65 65 64 64 65 66 67 67 67 67 67 66 66 65 64 63 57 57 56
65 65 65 66 65 65 66 66 65 65 65 65 65 65 65 64 64 66 66 66 66 66 66 66 66 62 61 64 60 58 58 55
64 65 66 66 65 65 65 65 65 65 66 66 65 65 65 65 64 64 64 65 63 64 63 63 61 61 60 60 59 60 56 55
61 64 66 66 65 65 64 65 65 64 64 66 65 65 64 64 63 63 64 63 62 63 61 61 62 62 61 60 60 58 56 55
58 63 65 65 66 64 65 65 64 64 64 65 64 63 63 63 62 62 62 62 62 61 61 60 59 60 59 59 58 59 59 59
56 59 64 64 65 65 65 65 64 64 63 64 65 64 63 62 62 61 61 61 61 61 59 59 58 58 58 59 59 59 59 60
57 57 60 63 64 64 64 64 63 63 63 64 64 65 64 62 61 60 60 61 61 61 60 60 58 58 58 59 60 60 60 60
59 59 58 60 61 62 61 62 62 62 62 63 64 64 64 63 61 60 60 60 60 59 59 58 58 57 57 58 58 59 60 60
60 62 61 60 59 59 60 60 61 61 62 62 63 63 64 63 62 61 61 60 59 59 59 59 57 58 58 59 60 60 60 60
61 62 62 62 60 59 58 59 59 60 61 62 62 62 63 63 62 61 61 59 59 60 59 60 59 60 60 60 61 62 62 62
58 60 62 63 62 59 58 57 57 58 59 61 62 62 62 62 61 61 61 60 59 61 61 61 62 63 62 62 63 63 63 63
42 55 60 63 62 61 60 59 59 59 60 62 61 62 61 61 61 61 62 61 62 62 63 62 63 64 62 63 60 61 62 63
43 42 53 61 63 62 62 62 61 61 61 61 62 62 62 62 62 62 63 63 63 64 64 64 63 64 64 62 59 59 60 61
50 45 43 58 63 62 62 61 60 61 61 62 63 63 64 64 63 64 64 64 64 65 65 65 64 64 64 64 63 63 60 58
56 53 52 45 61 63 63 62 62 63 64 64 64 65 65 64 65 64 65 65 65 66 66 65 65 64 64 64 63 64 64 61
59 58 56 57 53 64 63 63 63 64 65 65 66 66 65 66 65 65 66 66 66 67 67 66 65 65 65 64 63 62 61 61
60 61 60 63 63 64 64 64 64 63 65 65 66 65 65 66 66 64 61 61 61 60 59 59 59 58 57 57 59 58 57 60
58 61 63 65 65 66 66 65 65 65 66 66 63 57 54 54 54 53 53 54 55 54 55 55 55 54 54 53 55 53 54 54

GFSFLT2_sfc_30mbdewp_276.txt.gz
Dewpoint
62 62 66 68 68 68 69 69 68 68 68 68 68 69 68 68 67 68 68 69 69 69 68 67 66 65 64 64 63 63 57 50
63 63 61 62 64 68 68 68 68 68 68 68 68 68 68 67 66 66 67 68 68 68 68 68 67 66 65 64 63 63 56 50
62 62 61 60 60 63 67 68 67 67 67 68 67 63 61 62 62 62 66 67 67 67 67 67 67 66 65 64 63 55 51 51
58 61 61 61 58 59 62 62 63 63 61 61 63 60 58 58 59 63 66 66 66 66 66 66 66 56 57 63 59 52 51 50
57 60 61 61 60 58 59 59 60 61 62 62 61 59 60 60 59 61 62 64 61 62 62 61 56 55 52 54 52 53 52 50
58 59 62 63 60 59 58 58 59 60 61 63 62 62 60 60 57 56 58 56 58 57 56 56 56 56 56 55 55 54 51 51
56 59 62 63 64 59 59 59 59 60 60 61 63 60 60 60 58 56 55 56 56 57 56 55 56 57 56 55 55 54 55 55
55 58 60 63 63 63 61 61 60 61 60 60 63 61 60 59 59 57 56 56 56 56 55 55 55 55 54 55 55 55 56 57
52 57 59 62 63 63 63 61 61 61 61 62 61 63 61 60 59 58 57 57 57 57 57 57 56 54 54 55 56 57 57 57
54 55 57 60 63 62 61 61 62 61 60 60 63 62 62 62 59 58 58 58 57 58 56 55 56 56 55 55 56 57 57 58
53 57 59 59 61 61 62 62 62 61 60 59 60 62 62 63 60 59 60 59 58 57 56 57 56 57 56 57 58 59 60 60
44 53 58 63 61 61 60 60 62 61 60 59 60 60 62 63 61 60 61 59 58 58 58 57 58 59 58 59 60 62 62 62
53 47 51 61 62 61 60 59 60 60 60 60 60 61 62 63 63 62 63 61 59 59 59 60 60 62 62 62 63 63 64 64
56 55 51 48 58 61 62 61 59 59 59 59 60 61 62 63 63 62 63 61 61 60 61 61 63 65 63 63 61 61 62 63
57 59 58 51 48 58 61 62 61 59 59 58 59 61 63 63 62 62 62 61 60 61 62 63 62 65 65 63 60 59 57 59
59 60 61 58 51 52 61 61 60 60 59 59 59 62 63 63 64 63 62 62 62 63 64 64 64 63 65 65 64 63 59 54
58 60 62 62 59 54 62 63 62 60 60 60 62 63 63 63 64 64 62 63 63 64 65 65 65 64 64 64 64 64 64 63
57 58 61 63 64 63 60 63 63 60 60 63 64 64 64 64 65 64 63 65 64 65 66 66 65 65 65 65 64 62 62 61
56 57 57 60 65 64 58 63 63 62 61 64 65 65 62 63 63 61 61 64 65 64 62 62 61 60 60 59 59 57 57 60
55 56 56 57 59 61 63 64 63 61 58 56 54 52 52 52 51 51 52 53 57 58 57 56 55 55 55 55 55 53 53 54

GFSFLT2_sfc_30mbdewp_279.txt.gz
Dewpoint
62 61 64 68 68 68 68 68 68 68 68 68 69 68 68 69 68 68 69 69 69 69 68 66 65 64 64 63 63 63 59 51
59 62 58 59 60 67 68 67 67 67 67 68 68 68 68 68 67 67 68 69 69 69 68 67 66 65 65 64 64 63 58 50
59 61 58 59 57 60 67 68 68 67 67 67 67 62 61 62 63 62 66 68 68 68 68 68 67 67 66 65 64 58 52 50
57 59 58 58 56 57 61 60 62 62 61 61 63 60 58 56 58 62 65 65 66 67 67 67 67 59 58 64 60 53 50 48
53 60 61 59 57 55 58 59 59 60 61 61 60 59 58 56 56 60 61 64 61 62 62 62 58 56 51 55 58 55 51 49
52 54 62 63 59 56 55 58 58 60 60 63 61 62 60 59 57 56 60 58 58 55 56 57 58 57 56 55 54 53 50 50
48 54 61 63 65 60 58 58 58 58 60 63 63 62 61 60 59 57 55 56 55 56 55 55 57 57 56 56 56 56 55 53
46 51 59 63 65 65 62 61 58 59 59 61 64 64 62 61 61 58 56 55 54 54 55 54 54 55 56 56 55 55 55 56
47 51 58 63 65 66 65 61 61 60 60 62 63 65 64 62 61 60 58 57 57 56 56 55 54 53 53 54 54 56 56 57
47 50 53 61 63 65 64 63 63 62 61 62 64 64 65 64 61 60 59 58 57 57 56 55 55 54 54 54 54 56 57 58
45 49 54 58 61 63 64 64 64 63 62 62 63 64 65 64 62 61 61 59 58 58 57 57 55 55 55 55 56 56 56 56
53 55 54 56 60 62 63 63 64 64 63 62 62 63 64 65 63 62 62 59 59 59 58 58 57 56 55 55 58 60 60 61
55 56 58 58 52 59 62 62 62 63 63 63 63 63 64 64 64 63 62 61 60 61 60 59 59 59 59 61 61 63 64 64
56 57 59 61 60 53 55 62 62 62 62 63 63 63 63 64 64 62 63 61 61 61 60 59 60 61 59 61 60 61 64 65
55 57 59 60 62 61 56 52 63 62 62 61 62 63 63 63 65 64 63 63 61 61 61 60 57 59 63 60 59 58 58 60
50 57 58 59 62 63 62 58 56 61 62 60 60 62 63 64 64 65 63 64 62 62 62 60 60 59 64 65 65 63 58 54
43 53 57 59 59 62 65 63 60 61 61 60 61 61 63 63 65 65 64 64 63 62 62 62 63 62 64 64 65 64 64 62
40 49 55 57 57 58 61 66 62 62 63 61 62 65 64 64 65 65 65 65 63 63 63 64 64 65 65 64 63 61 62 62
37 46 53 56 56 56 55 57 63 62 63 62 63 65 65 64 65 64 64 64 61 60 59 57 61 64 65 62 60 59 59 59
34 42 52 55 55 54 53 53 54 54 54 55 53 53 53 54 56 56 56 56 55 54 54 55 55 56 57 58 57 56 57 56